www.pogodaiklimat.ru

ПОГОДА на Мысе Лопатка

  • Прогноз погоды на Мысе Лопатка
  • Монитор погоды на Мысе Лопатка
  • Климат города

АРХИВ ПОГОДЫ на Мысе Лопатка

Время (UTC), дата Ветер
(напр.,м/с)
 
Видим.   Явления Облачность Т
(С)
Тd
(С)
f
(%)
Тe
(С)
Тes
(С)
Комфортность P
(гПа)
Po
(гПа)
Тmin
(С)
Tmax
(С)
R
(мм)
S
(см)
03 11.01 В 26-34
{34}
4000 м слабый дождь со снегом 10/10 200 м
[Frnb Ns]
+0.8 +0.1 95 -11 -11 987.7 981.5
06 11.01 В 19-36
{37}
4000 м слабый дождь со снегом 10/10 200 м
[Frnb Ns]
+1.2 +0.1 92 -10 -10 985.2 979.0
09 11.01 Ю 10-13
{37}
2000 м ливневой снег 10/10 200 м
[Cb cap]
-2.1 -2.3 99 -11 -11 992.2 985.9 +1.2 0.5
12 11.01 Ю 8-13
{15}
2000 м ливневой снег {метель} 10/10 200 м
[Cb cap]
-3.6 -4.0 97 -12 -12 997.1 990.7
15 11.01 Ю 3
{16}
4000 м слабый ливневой снег {метель} 10/10 300 м
[Cb cap]
-4.5 -5.2 95 -10 -10 998.6 992.2
18 11.01 З 6 4000 м слабый ливневой снег {метель} 9/9 600 м
[Cb cap]
-4.3 -5.4 92 -12 -12 999.7 993.3
21 11.01 З 5 20 км {ливн. осадки} 8/3 600 м
[Cb calv Ac trans]
-4.2 -6.5 84 -11 -11 1001.3 994.9 -4.6 1 16
00 12.01 Ю 3 50 км {ливн. осадки} 3/3 600 м
[Sc]
-4.0 -8.3 72 -9 -8 1003.4 997.0
03 12.01 В 1 50 км ясно -3.4 -11.3 54 -5 -3 1004.1 997.7
06 12.01 В 7 50 км 3/1 600 м
[Sc Ac trans]
-3.8 -10.6 59 -11 -11 1004.8 998.4
09 12.01 В 12-15
{16}
2000 м слабая крупа {ливн. осадки, метель} 9/9 600 м
[Cb cap]
-3.1 -11.8 51 -13 -13 1005.1 998.7 -2.6 0.0
12 12.01 Ю 9-12
{18}
20 км позёмок {ливн. осадки, метель} 1/1 600 м
[Sc]
-2.3 -12.1 47 -10 -10 1007.0 1000.7
15 12.01 штиль 0
{12}
20 км {метель} 8/8 600 м
[Sc]
-1.8 -8.6 60 -2 -2 1008.1 1001.8
18 12.01 В 6 20 км {метель} 4/0
[Ac lent]
-2.3 -8.4 63 -9 -9 1008.8 1002.5
21 12.01 В 13-16
{18}
50 км позёмок {метель} 1/1 600 м
[Sc]
-2.9 -5.6 82 -13 -13 1007.4 1001.0 -3.9 0.0 16
00 13.01 В 11-15
{19}
50 км {метель} 9/9 600 м
[Sc]
-1.6 -5.0 78 -10 -10 1008.8 1002.5
03 13.01 В 10-12
{18}
20 км 9/3 600 м
[Sc Ci]
-0.8 -1.9 92 -9 -9 1006.4 1000.1
06 13.01 В 13-17
{18}
4000 м слабый ливневой снег {метель} 10/10 200 м
[Cb cap]
+0.1 -0.2 98 -9 -9 1005.8 999.5
09 13.01 В 12-15
{18}
20 км {ливн. осадки, метель} 10/10 600 м
[Sc]
0.0 -0.1 99 -9 -9 1005.2 998.9 +0.4 1
12 13.01 В 11-13
{15}
20 км в посл. час ливневой снег {метель} 9/3 600 м
[Sc diur, vesp Ci ing]
+0.3 -0.1 97 -8 -8 1005.6 999.3
15 13.01 В 13-15
{17}
20 км 10/10 600 м
[Sc]
+0.2 -0.1 98 -9 -9 1005.3 999.0
18 13.01 В 14-17
{17}
4000 м слабый ливневой снег 9/9 600 м
[Cb cap]
+0.4 +0.2 99 -9 -9 1006.3 1000.0
21 13.01 В 17-20
{22}
4000 м слабый ливневой снег 10/10 300 м
[Cb cap]
+0.2 0.0 99 -10 -10 1007.3 1001.0 -0.2 0.7 22
00 14.01 В 20-24
{24}
2000 м слабый ливневой снег {метель} 10/10 200 м
[Cb cap]
0.0 -0.1 99 -11 -11 1008.4 1002.1
03 14.01 В 21-26
{27}
4000 м слабый ливневой снег {метель} 9/9 300 м
[Cb cap]
-0.2 -0.3 99 -11 -11 1009.0 1002.7
06 14.01 В 22-28
{28}
20 км {ливн. осадки, метель} 9/8 600 м
[Sc Ac trans Ci sp]
+0.1 -2.9 80 -11 -11 1010.9 1004.6
09 14.01 В 21-28
{28}
20 км 9/9 600 м
[Sc]
-0.2 -3.4 79 -11 -11 1012.4 1006.0 +0.3 0.6
12 14.01 В 17-25
{28}
20 км 8/3 600 м
[Sc Ac trans Ci fib]
-0.7 -3.2 83 -11 -11 1013.1 1006.7
15 14.01 В 17-21
{25}
20 км 8/8 600 м
[Sc]
-1.4 -3.0 89 -12 -12 1013.0 1006.6
18 14.01 В 18-24
{25}
20 км {ливн. осадки, метель} 3/1 600 м
[Sc Ci fib]
-1.0 -3.8 81 -11 -11 1012.0 1005.6
21 14.01 В 18-25
{26}
20 км 8/8 600 м
[Sc]
-0.9 -4.4 77 -11 -11 1012.5 1006.1 -2.0 0.0 23
00 15.01 В 18-23
{25}
20 км 8/6 600 м
[Sc Ci sp]
-0.8 -5.4 71 -11 -11 1012.9 1006.5
03 15.01 В 13-17
{25}
20 км 3/3 600 м
[Sc]
-1.3 -5.0 76 -11 -11 1012.4 1006.0
06 15.01 В 12-15
{19}
20 км 9/9 600 м
[Sc]
-2.0 -3.3 91 -12 -12 1012.3 1005.9
09 15.01 СВ 9-12
{19}
20 км 3/3 600 м
[Sc]
-2.7 -5.1 84 -11 -11 1012.3 1005.9 -0.6
12 15.01 В 12-14
{16}
20 км 4/3 600 м
[Sc Ac trans]
-2.6 -3.8 91 -12 -12 1011.9 1005.5
15 15.01 В 8-11
{14}
20 км 9/8 600 м
[Sc]
-2.8 -5.2 84 -11 -11 1011.4 1005.0
18 15.01 СВ 7-10
{12}
20 км 9/9 600 м
[Sc]
-3.3 -5.3 86 -11 -11 1011.2 1004.8
21 15.01 СВ 8-11
{12}
20 км позёмок {ливн. осадки, метель} 3/1 600 м
[Sc Ac trans]
-4.1 -6.3 85 -13 -13 1011.7 1005.2 -4.1 0.0 23
00 16.01 СВ 6
{11}
50 км {ливн. осадки, метель} 8/1 600 м
[Sc Ci fib]
-3.6 -9.3 65 -11 -10 1012.2 1005.7 -4.5
03 16.01 СВ 6
{12}
50 км 6/3 600 м
[Sc Ac trans Ci sp]
-3.2 -8.8 65 -10 -10 1011.1 1004.7
06 16.01 В 7 50 км 8/8 600 м
[Sc]
-2.8 -8.8 63 -10 -10 1011.1 1004.7
09 16.01 В 5
{10}
20 км 3/1 1000 м
[Sc Ci sp]
-3.6 -9.2 65 -10 -10 1011.6 1005.1 -2.4
12 16.01 СВ 4 20 км 1/1 600 м
[Sc]
-4.4 -10.6 62 -10 -10 1011.2 1004.8
15 16.01 СВ 3 20 км 9/9 600 м
[Sc]
-4.1 -8.9 69 -9 -9 1010.3 1003.9
18 16.01 З 8-10
{10}
20 км 10/10 600 м
[Sc]
-3.4 -8.0 70 -12 -12 1009.7 1003.3
21 16.01 СЗ 7
{11}
20 км 10/10 600 м
[Sc]
-4.3 -9.6 66 -12 -12 1009.3 1002.9 -5.0 23
00 17.01 СЗ 8-10
{10}
50 км 8/3 600 м
[Sc Ac trans Ci sp]
-4.7 -8.5 75 -13 -13 1009.4 1003.0
03 17.01 СЗ 11-14
{14}
50 км 8/8 600 м
[Sc]
-6.4 -9.7 77 -17 -17 1008.4 1002.0
06 17.01 СЗ 9-11
{14}
50 км 8/5 600 м
[Sc Ac trans Ci sp]
-6.9 -9.5 82 -17 -17 1009.5 1003.1
09 17.01 С 9-11
{12}
2000 м слабый ливневой снег {метель} 10/10 300 м
[Cb cap]
-6.4 -7.5 92 -16 -16 1010.3 1003.9 -4.3 0.0
12 17.01 СВ 10-15
{15}
20 км позёмок {ливн. осадки, метель} 3/3 600 м
[Sc diur, vesp]
-6.3 -7.4 92 -16 -16 1011.1 1004.7
15 17.01 СВ 11-15
{19}
20 км позёмок {метель} 6/3 600 м
[Sc Ci sp]
-7.1 -9.0 86 -18 -18 1012.8 1006.3
18 17.01 СВ 7
{15}
20 км {метель} ясно -7.3 -14.2 58 -16 -16 914.4 996.8
21 17.01 З 6 50 км ясно -4.4 -10.5 62 -12 -12 1015.3 1008.8 -7.6 0.3 24
00 18.01 З 11-13
{13}
50 км позёмок {метель} 1/1 600 м
[Sc]
-5.2 -9.1 74 -15 -15 1015.8 1009.3

 

Местоположение метеостанции Мыс Лопатка (Камчатский край, Россия): широта 50.87 долгота 156.60 высота над уровнем моря 50 м.

В архиве по умолчанию представлена погода на Мысе Лопатка за последнюю неделю. Архивные данные за месяц целиком и за предыдущие месяцы, начиная с января 2011 года, Вы можете получить, выбрав интересующий диапазон дат из раскрывающегося списка и нажав кнопку "Ввод!".

Внимание! Время в таблицах - всемирное. Для получения местного времени необходимо прибавить поправку, которая на Мысе Лопатка равна 12 ч.

Ветер - указаны скорость ветра в м/с - средняя за 10 мин, порывы в срок и между сроками (в фигурных скобках) и направление, откуда дует ветер: С - северный, СВ - северо-восточный, В - восточный, ЮВ - юго-восточный, Ю - южный, ЮЗ - юго-западный, З - западный, СЗ - северо-западный.
Видимость - горизонтальная дальность видимости в метрах или километрах. При видимости от 1 до 10 км при отсутствии осадков обычно наблюдается дымка, при ухудшении видимости до 1 км и менее - туман. В сухую погоду видимость может ухудшаться дымом, пылью или мглою.
Явления - указаны атмосферные явления, наблюдавшиеся в срок или в последний час перед сроком; фигурными скобками обозначены явления, наблюдавшиеся между сроками (за 1-3 часа до срока); квадратными скобками обозначены град или гололедные отложения с указанием их диаметра в мм.
Облачность - указаны через наклонную черту общая и нижняя облачность в баллах и высота нижней границы облаков в метрах; квадратными скобками обозначены формы облаков: Ci - перистые, Cs - перисто-слоистые, Cc - перисто-кучевые, Ac - высококучевые, As - высокослоистые, Sc - слоисто-кучевые, Ns - слоисто-дождевые, Cu - кучевые, Cb - кучево-дождевые. Подробнее классификацию облаков см. в Атласе облаков (PDF).
T - Температура воздуха - температура, измеренная на высоте 2 м над землей.
Td - Температура точки росы - температура, при понижении до которой содержащийся в воздухе водяной пар достигнет насыщения.
f - Относительная влажность воздуха - влажноcть воздуха, измеренная на высоте 2 м над землей.
Te - Эффективная температура - температура, которую ощущает одетый по сезону человек в тени. Характеристика душности погоды. При расчете учитывается влияние влажности воздуха и скорости ветра на теплоощущения человека.
Tes - Эффективная температура на солнце - температура, которую ощущает человек, с поправкой на солнечный нагрев. Характеристика знойности погоды. Зависит от высоты солнца над горизонтом, облачности и скорости ветра. Ночью, в пасмурную погоду, а также при ветре 12 м/с и более поправка равна нулю.
P - Атмосферное давление - приведенное к уровню моря атмосферное давление.
Po - Атмосферное давление - измеренное на уровне метеостанции атмосферное давление.
Tmin - Минимальная температура - минимум температуры воздуха на высоте 2 м над землей.
Tmax - Максимальная температура - максимум температуры воздуха на высоте 2 м над землей.
R - Количество осадков - Количество выпавших осадков, мм. При наведении курсора мыши на число - период времени, за который выпало указанное количество осадков.
S - Снежный покров - Высота снежного покрова, см. При наведении курсора мыши на число - состояние снежного покрова и степень покрытия местности в баллах.